Location: Scenic
(43.7797°N, 102.5549°W)
Time: 02:27:49
(UTC-06:00)

ISS - Visible Passes

Search period start: 27 April 2018 00:00
Search period end: 07 May 2018 00:00
Orbit: 402 x 407 km, 51.6° (Epoch: 27 April)

Date Brightness Start Highest point End Pass type
(mag) Time Alt. Az. Time Alt. Az. Time Alt. Az.
01 May -1.7 05:02:34 10° S 05:05:07 21° SE 05:07:39 10° E visible
02 May -1.2 04:11:49 10° SSE 04:13:02 12° SE 04:14:14 10° ESE visible
03 May -3.1 04:53:36 10° SW 04:56:45 47° SE 04:59:55 10° ENE visible
04 May -2.2 04:03:18 20° S 04:04:32 26° SE 04:07:18 10° E visible
05 May -1.3 03:12:58 14° ESE 03:12:58 14° ESE 03:14:15 10° E visible
05 May -3.8 04:45:37 13° WSW 04:48:28 77° NNW 04:51:45 10° NE visible
06 May -3.6 03:55:12 39° SSW 03:56:08 59° SE 03:59:21 10° ENE visible
